Location: McFarlands Corners
(41.4117°N, 81.3382°W)
Time: 14:42:28
(UTC+00:00)

ISS - Visible Passes

Search period start: 13 October 2024 00:00
Search period end: 23 October 2024 00:00
Orbit: 411 x 423 km, 51.6° (Epoch: 12 October)

Date Brightness Start Highest point End Pass type
(mag) Time Alt. Az. Time Alt. Az. Time Alt. Az.
16 Oct -1.3 10:32:44 10° S 10:35:21 22° SE 10:37:59 10° E visible
17 Oct -0.8 09:45:37 10° SSE 09:47:10 13° SE 09:48:43 10° ESE visible
18 Oct -3.4 10:32:23 14° SW 10:35:04 63° SE 10:38:22 10° ENE visible
19 Oct -2.5 09:46:31 35° SE 09:46:40 35° SE 09:49:43 10° ENE visible
20 Oct -0.3 09:00:25 12° E 09:00:25 12° E 09:00:47 10° E visible
20 Oct -3.4 10:33:21 28° W 10:34:46 48° NNW 10:38:00 10° NE visible
21 Oct -2.8 09:47:05 44° NE 09:47:05 44° NE 09:49:28 10° NE visible
22 Oct -0.3 09:00:39 11° ENE 09:00:39 11° ENE 09:00:47 10° ENE visible
22 Oct -2.4 10:33:33 22° NW 10:34:26 25° NNW 10:37:15 10° NE visible
